This is the latest recevied weather packets stored in our database for station/object W6ORV. If no packets are shown the sender has not sent any weather packets the latest 10 day(s).
| Time | Temp. | Humidity | Pressure | Rain* | Wind** | Luminosity | Snow |
|---|---|---|---|---|---|---|---|
| 1778198254 | 31.67° C | 41% | 4298.4 hPa | 0 mm | - | 420 W/m² | - |
| 1778197951 | 31.67° C | 40% | 4298.6 hPa | 0 mm | - | 438 W/m² | - |
| 1778197648 | 31.11° C | 40% | 4298.8 hPa | 0 mm | - | 472 W/m² | - |
| 1778197345 | 32.22° C | 41% | 4298.5 hPa | 0 mm | - | 485 W/m² | - |
| 1778197041 | 32.78° C | 40% | 4298.7 hPa | 0 mm | - | 495 W/m² | - |
| 1778196739 | 32.22° C | 37% | 4298.7 hPa | 0 mm | - | 494 W/m² | - |
| 1778196436 | 32.22° C | 38% | 4298.6 hPa | 0 mm | - | 539 W/m² | - |
| 1778196134 | 33.33° C | 37% | 4298.9 hPa | 0 mm | - | 517 W/m² | - |
| 1778195830 | 32.78° C | 33% | 4298.9 hPa | 0 mm | - | 501 W/m² | - |
| 1778195527 | 32.22° C | 36% | 4298.8 hPa | 0 mm | - | 581 W/m² | - |
| 1778195224 | 32.78° C | 34% | 4298.8 hPa | 0 mm | - | 587 W/m² | - |
| 1778194921 | 33.33° C | 34% | 4298.9 hPa | 0 mm | - | 599 W/m² | - |
| 1778194620 | 33.33° C | 34% | 4298.9 hPa | 0 mm | - | 615 W/m² | - |
| 1778194317 | 32.78° C | 34% | 4299.1 hPa | 0 mm | - | 632 W/m² | - |
| 1778194013 | 32.78° C | 34% | 4299.1 hPa | 0 mm | - | 611 W/m² | - |
| 1778193710 | 32.78° C | 36% | 4299.3 hPa | 0 mm | - | 629 W/m² | - |
| 1778193406 | 33.33° C | 34% | 4299.3 hPa | 0 mm | - | 653 W/m² | - |
| 1778193103 | 32.78° C | 36% | 4299.3 hPa | 0 mm | - | 656 W/m² | - |
| 1778192799 | 31.67° C | 36% | 4299.3 hPa | 0 mm | - | 658 W/m² | - |
| 1778192496 | 32.22° C | 36% | 4299.4 hPa | 0 mm | - | 671 W/m² | - |
| 1778192192 | 32.22° C | 35% | 4299.4 hPa | 0 mm | - | 684 W/m² | - |
| 1778191889 | 32.78° C | 36% | 4299.1 hPa | 0 mm | - | 698 W/m² | - |
| 1778191586 | 34.44° C | 33% | 4299.4 hPa | 0 mm | - | 694 W/m² | - |
| 1778191284 | 34.44° C | 32% | 4299.5 hPa | 0 mm | - | 663 W/m² | - |
| 1778190979 | 32.78° C | 33% | 4299.7 hPa | 0 mm | - | 649 W/m² | - |
* Rain latest hour (hover to see other rain measurements)
** Current wind speed in m/s (hover to see current wind gust speed)